Temperature
4 4 4 5 5 6 6 7 7 8 9 9 9 9 10 10 10 11 11 12 13 14 14 15 15 15 15 15 15 15 15 15 15 14 14 14 14 14 14 14 14 14 14 13
4 4 5 6 6 6 7 7 7 8 9 9 9 9 9 10 10 10 11 12 13 14 14 14 15 15 15 15 15 15 15 14 14 14 14 14 14 14 14 14 14 13 13 13
4 5 6 6 6 6 7 7 7 8 8 9 9 9 9 10 10 11 11 12 13 14 14 15 15 15 15 15 15 14 14 14 14 14 14 14 14 14 14 14 14 13 13 13
4 5 6 6 7 7 7 8 8 8 8 8 9 9 9 9 9 10 11 11 13 14 14 15 15 15 15 15 15 15 14 14 14 14 14 14 14 14 14 14 14 14 13 13
5 6 6 6 7 7 7 8 8 8 8 8 8 8 9 9 9 10 10 11 13 14 14 15 15 15 15 15 15 15 14 14 14 14 14 14 14 14 14 14 14 13 13 13
5 6 6 6 7 7 7 8 8 8 8 8 8 8 9 9 9 10 10 11 12 13 14 15 15 15 15 15 15 15 14 14 14 14 14 14 14 14 14 13 13 13 13 13
6 6 6 7 7 7 8 8 8 8 8 8 8 8 9 9 9 9 9 10 12 13 14 14 15 15 15 15 15 15 14 14 14 14 14 14 13 13 14 13 13 13 13 13
6 6 6 7 7 7 7 8 8 8 8 8 8 8 8 9 8 9 9 10 11 12 13 13 14 14 14 14 14 14 14 14 14 14 13 13 13 13 13 13 13 13 13 12
6 6 7 7 7 8 8 7 7 7 7 7 8 8 9 9 8 8 9 9 10 11 12 12 13 13 13 13 14 14 14 14 14 13 13 13 13 13 13 13 12 12 12 12
6 6 6 7 8 8 8 7 6 7 8 8 8 8 8 8 8 7 7 7 9 10 11 12 12 12 13 13 13 13 13 13 13 13 13 12 12 12 12 12 12 12 12 11
6 6 6 6 6 7 8 8 6 6 7 7 8 8 8 7 7 6 6 7 8 9 10 11 11 11 12 12 12 12 12 12 12 12 12 12 11 11 11 11 11 11 11 11
6 5 5 6 7 7 7 7 7 7 6 6 6 7 7 5 6 6 6 7 8 8 9 10 10 11 11 11 11 11 11 11 11 11 11 11 11 10 10 10 10 10 10 10
6 5 5 6 7 7 7 7 7 6 5 5 6 7 7 5 5 6 6 6 7 8 9 9 10 10 10 10 10 10 10 10 10 10 10 10 10 10 9 9 9 9 9 9
6 5 5 6 6 6 7 7 7 6 5 6 6 6 6 5 5 5 5 6 7 7 8 8 9 9 9 9 9 9 10 10 10 9 9 9 9 9 9 9 9 9 9 9
6 5 5 5 6 6 7 7 7 7 6 6 6 6 6 5 4 4 5 5 6 7 7 7 7 8 8 8 9 9 9 9 9 9 9 9 9 8 8 8 8 8 8 8
5 5 5 5 6 6 6 6 6 6 6 6 6 6 5 5 4 4 4 4 4 5 5 6 6 7 7 7 8 8 8 8 8 8 8 8 8 8 7 7 7 7 7 7
4 5 5 5 5 7 5 5 5 5 5 5 6 5 4 4 3 3 3 3 3 3 4 5 5 6 6 6 6 7 7 7 7 8 7 7 7 7 7 7 7 7 7 7
4 3 3 4 6 5 5 5 5 4 4 4 4 3 3 3 3 3 3 3 3 3 3 4 4 5 5 5 5 6 6 6 7 7 7 7 7 7 6 6 6 6 6 6
3 4 3 3 4 4 5 5 4 5 4 3 3 3 2 3 3 3 3 2 2 3 3 3 3 3 4 4 4 5 5 6 6 6 6 6 6 6 6 6 6 6 5 5
3 3 3 3 5 5 5 5 4 5 4 3 2 2 2 2 2 2 2 2 2 2 2 2 2 3 3 3 3 4 4 5 5 5 5 5 5 5 5 5 5 5 5 4
4 3 3 3 4 3 4 4 5 4 4 2 2 2 2 1 1 2 2 2 2 2 2 2 2 2 2 2 2 3 3 3 4 4 4 4 4 5 5 4 4 4 4 4
3 3 3 3 4 4 3 3 3 3 2 2 2 2 1 1 1 1 1 1 1 1 1 1 1 1 1 1 1 2 2 2 3 3 3 4 4 4 4 4 3 3 3 3
2 2 2 2 3 2 2 2 3 3 2 2 2 1 1 1 1 1 0 0 0 0 0 0 0 0 1 1 0 1 1 1 2 2 2 3 3 3 3 3 3 2 2 2
1 1 1 2 1 1 2 2 2 2 2 2 1 1 1 0 0 0 0 0 -0 -0 -0 -0 -0 -0 0 0 0 -0 0 0 1 1 2 2 2 2 2 2 2 2 2 2
1 1 1 1 1 1 1 2 2 2 2 1 1 1 0 -0 -0 -0 -1 -1 -1 -1 -1 -1 -1 -1 -1 -1 -0 -0 -1 -1 -0 0 1 1 1 1 1 1 1 1 2 1
-1 0 1 1 2 0 2 2 2 1 1 1 0 0 0 -0 -1 -1 -1 -1 -1 -1 -2 -2 -2 -2 -2 -2 -1 -1 -1 -1 -1 -1 -0 0 0 0 1 1 1 1 1 1
Wind_Speed
1 2 4 5 6 4 3 3 3 1 1 3 4 3 1 1 1 3 4 3 2 2 2 3 5 7 7 8 10 12 11 10 8 7 7 7 7 6 5 5 9 10 10 11
1 4 5 4 5 5 4 4 3 2 1 2 2 2 2 3 3 4 5 6 5 3 3 2 3 6 7 9 11 11 11 11 11 9 7 5 5 4 4 4 5 8 9 9
3 3 4 5 5 6 5 5 5 4 3 4 3 1 3 3 3 4 5 5 5 5 5 4 3 4 6 8 9 10 11 10 11 10 6 4 3 2 3 4 4 5 8 8
3 3 4 5 4 5 2 5 7 6 5 2 2 0 3 3 3 5 5 6 6 5 4 4 3 3 5 6 5 6 7 8 8 10 9 9 8 7 7 5 5 4 6 6
1 0 2 3 2 2 2 5 7 6 4 3 2 2 4 1 3 6 6 6 6 5 5 4 3 3 2 2 3 3 4 5 6 7 9 9 8 6 4 4 6 5 4 4
0 0 1 0 0 3 4 7 7 5 3 2 1 2 3 2 3 4 4 4 5 4 3 3 1 1 1 3 3 3 3 3 3 5 6 8 8 7 7 6 6 5 3 3
4 2 2 1 3 3 2 5 4 3 2 1 0 2 3 5 4 3 3 2 2 2 1 1 2 2 2 2 2 2 3 2 2 2 4 5 7 8 9 8 8 7 4 3
3 3 4 3 1 3 1 2 3 4 4 1 2 0 3 5 5 4 3 3 4 3 2 2 2 2 2 3 3 2 2 2 1 1 1 1 3 4 4 6 6 7 5 5
3 2 3 2 2 3 2 1 1 5 4 4 1 2 4 6 9 9 8 9 7 6 6 5 5 5 4 4 3 2 2 2 2 2 2 1 2 3 4 4 5 5 5 5
2 4 4 4 4 5 2 3 4 4 4 4 2 2 3 5 6 7 8 9 8 8 9 8 7 7 6 4 4 4 3 2 2 2 2 2 2 3 4 5 5 6 6 6
2 4 3 4 4 2 3 3 4 4 4 5 3 1 3 4 2 3 6 7 8 9 8 8 8 7 6 6 6 5 4 3 2 2 2 3 2 3 4 5 5 5 6 7
2 4 3 2 3 3 1 2 3 4 2 3 4 1 6 2 2 4 6 7 7 8 7 8 8 8 8 8 6 5 4 3 2 0 1 2 2 3 4 5 5 5 5 5
3 4 4 3 4 4 3 3 3 5 5 4 4 1 4 5 6 6 6 7 7 9 9 9 9 9 8 8 7 6 4 3 2 1 1 2 3 4 4 5 5 6 6 6
4 4 3 5 2 1 1 2 2 4 4 3 3 3 1 3 4 5 6 6 7 8 9 9 9 9 8 7 7 6 6 4 3 2 3 4 5 5 5 5 5 6 6 6
4 5 4 3 3 2 2 1 2 3 4 5 4 4 2 1 1 3 4 6 8 9 10 10 9 9 9 9 8 7 6 5 4 3 4 5 5 5 5 6 6 6 6 6
4 4 3 5 6 4 4 4 2 2 2 3 3 1 0 2 3 4 5 6 8 8 8 9 9 9 9 9 9 8 7 6 5 5 5 5 5 5 6 6 6 6 6 6
3 4 3 2 4 4 3 3 1 1 1 2 3 2 1 2 2 2 3 5 6 7 8 9 9 8 9 9 8 9 8 7 6 6 5 5 5 6 7 7 7 7 7 6
5 4 3 2 3 1 3 2 3 4 2 2 2 2 2 1 1 2 3 4 6 7 8 9 9 9 9 8 8 8 8 7 6 6 5 5 5 6 6 7 8 7 6 6
4 5 4 3 1 3 3 0 2 3 0 1 2 2 3 2 2 1 3 4 4 6 7 7 8 8 9 9 9 8 8 7 6 6 6 5 5 6 7 8 8 6 6 6
6 5 5 3 2 3 2 1 1 2 1 1 3 2 2 3 1 2 3 6 6 7 7 7 8 7 8 9 9 8 8 7 7 8 7 6 5 7 8 9 7 6 6 6
3 4 4 3 2 5 3 2 1 3 3 2 2 2 1 1 3 4 6 6 6 7 8 8 8 8 8 9 8 8 8 8 9 8 7 6 6 7 7 7 6 6 7 7
4 4 3 4 3 6 1 2 4 3 2 3 2 1 1 3 5 5 6 7 8 8 8 7 7 8 8 8 8 9 9 9 9 8 7 6 5 5 5 6 6 7 8 8
4 5 5 6 5 1 1 2 1 3 3 2 2 1 2 3 4 5 6 7 7 8 8 7 8 9 8 8 7 9 10 9 9 8 7 6 5 5 5 7 8 7 8 7
2 2 3 2 4 3 2 2 2 2 3 2 1 2 2 4 5 6 7 7 7 8 8 8 9 10 10 9 8 9 10 9 8 8 7 6 5 5 6 6 7 8 8 8
5 5 3 3 3 2 4 5 4 2 2 1 1 2 3 4 6 6 7 7 8 8 8 8 8 10 11 11 10 10 9 9 9 9 7 6 6 6 6 7 8 9 9 10
5 7 7 6 6 6 5 5 5 4 3 2 2 3 3 4 6 7 7 7 8 8 8 9 9 10 11 11 11 10 9 8 9 8 7 6 5 5 5 6 6 11 12 14
Wind_Direction
161 181 207 207 207 227 208 184 158 150 109 146 182 212 258 327 296 262 276 279 270 258 255 199 195 183 181 190 191 189 193 193 186 186 190 196 206 208 208 207 204 202 199 193
143 243 238 219 212 218 221 182 150 77 68 110 153 239 264 242 231 244 254 263 263 272 276 229 191 183 189 197 201 197 200 196 195 198 196 194 189 197 201 196 197 200 197 191
211 252 225 198 197 198 213 183 155 135 97 66 98 296 250 253 243 252 246 250 249 243 252 253 224 203 198 203 204 205 202 200 196 192 180 165 157 145 177 193 194 196 193 187
259 261 206 187 192 180 197 169 149 141 124 101 116 214 267 243 254 258 258 259 260 259 260 258 241 225 211 206 192 200 204 203 200 192 187 187 194 202 199 188 183 175 170 166
326 70 134 161 211 163 161 137 128 123 106 86 72 92 302 287 250 258 255 256 263 265 262 266 259 229 198 166 156 174 189 193 194 195 195 198 203 199 166 156 163 164 143 139
227 345 7 285 33 138 132 102 83 63 74 76 115 121 305 293 252 269 266 263 264 262 257 275 306 106 101 98 107 121 150 168 173 188 195 199 201 186 169 169 169 160 136 117
29 23 2 30 90 83 93 100 95 74 63 70 92 114 284 311 300 267 269 296 313 314 311 330 348 16 38 78 91 106 131 145 146 187 204 208 205 191 186 176 173 163 158 156
67 22 355 360 64 121 90 85 132 140 142 89 74 107 299 329 354 19 40 40 36 30 36 36 22 38 38 49 61 68 81 91 91 128 181 200 189 183 179 170 165 168 163 153
105 43 355 0 3 111 103 76 103 108 94 85 25 338 352 21 26 32 42 47 39 33 38 38 34 39 39 45 45 61 79 73 69 83 96 97 120 141 147 146 143 141 134 136
106 93 3 335 32 26 100 133 88 89 112 98 49 16 342 344 8 23 33 35 31 33 37 36 34 32 31 31 28 34 48 53 49 65 87 101 106 120 129 130 133 134 133 130
81 96 21 32 35 7 23 54 81 83 93 125 126 324 339 291 323 48 42 40 39 40 36 32 29 28 31 32 31 27 24 26 28 44 77 100 108 116 123 127 132 136 135 137
79 96 65 354 286 259 15 80 112 112 85 91 116 300 340 339 63 81 61 45 41 42 36 31 27 25 24 22 18 15 8 2 345 352 112 132 134 129 131 134 134 132 131 130
110 97 83 19 351 358 36 43 84 101 99 104 119 221 354 43 60 56 59 47 39 38 34 28 24 20 13 6 1 357 351 333 317 265 182 177 171 164 162 156 147 140 137 133
106 79 122 160 211 191 74 44 85 96 110 126 162 164 339 29 51 39 41 46 44 37 30 22 15 8 0 354 349 342 333 322 305 260 217 212 203 191 179 166 157 152 149 148
81 79 66 55 46 95 79 71 86 102 149 156 177 172 226 233 84 47 37 39 38 29 20 11 3 354 350 347 342 335 325 318 306 276 246 233 216 193 177 170 165 158 156 156
60 96 68 33 23 60 52 26 64 85 113 136 133 187 332 78 81 55 41 38 30 15 3 357 352 347 342 336 330 325 319 311 296 271 258 241 210 194 188 180 169 162 158 155
66 97 86 14 338 29 352 314 195 121 65 145 183 218 85 62 66 60 47 39 23 0 349 344 338 330 326 320 318 314 308 305 293 274 262 240 214 204 197 182 173 174 171 166
107 91 97 87 52 279 268 343 124 116 58 45 88 66 59 39 72 93 72 39 4 347 340 334 329 325 320 315 314 310 307 303 295 285 271 249 221 211 195 185 187 183 173 175
93 114 99 96 93 284 292 351 128 129 3 26 111 65 30 17 53 19 44 15 341 327 319 313 312 310 313 316 316 316 313 307 299 291 280 258 228 213 200 198 196 186 178 183
55 79 100 110 137 248 265 274 266 119 273 166 123 96 36 59 13 291 345 337 326 320 315 313 314 314 318 318 320 320 316 311 303 296 286 266 233 216 211 207 197 186 184 188
65 59 96 132 214 266 266 285 111 160 253 140 130 124 99 209 235 284 314 316 313 310 309 312 315 315 313 314 320 320 316 309 303 299 288 268 241 226 217 204 192 183 183 181
161 148 165 152 203 256 313 114 163 193 126 125 137 149 234 270 287 301 308 310 313 312 312 315 317 315 313 316 320 318 313 307 306 301 289 274 253 234 213 197 193 186 183 188
190 185 183 189 209 237 345 157 132 140 143 156 171 234 274 284 293 304 305 308 311 312 315 316 314 313 314 315 316 311 309 309 309 304 293 282 262 236 211 201 199 193 193 198
235 154 148 219 242 210 188 152 129 136 152 170 201 248 268 280 291 300 304 310 315 316 316 318 318 316 315 316 314 306 307 308 307 303 294 280 259 242 221 213 206 203 202 205
201 165 172 232 233 205 232 208 183 159 143 145 257 257 268 283 294 299 304 307 309 310 312 313 312 310 309 312 311 311 309 309 306 302 294 280 260 246 233 224 220 216 214 210
193 177 179 215 208 191 216 195 177 176 199 225 259 286 288 279 283 292 294 293 297 301 304 305 305 305 305 308 307 308 307 306 304 302 297 285 268 255 243 237 240 230 226 226
Height
1463 1464 1463 1462 1462 1461 1461 1461 1460 1460 1459 1461 1463 1464 1464 1465 1466 1468 1468 1469 1470 1473 1476 1479 1482 1486 1489 1493 1496 1499 1503 1506 1510 1513 1516 1518 1521 1524 1526 1529 1531 1533 1535 1537
1464 1463 1460 1459 1460 1461 1461 1461 1461 1461 1459 1461 1464 1465 1464 1464 1465 1466 1468 1468 1470 1472 1475 1477 1480 1484 1486 1489 1493 1496 1499 1503 1506 1509 1512 1515 1518 1520 1523 1525 1528 1529 1531 1534
1462 1460 1458 1458 1459 1460 1459 1459 1460 1461 1461 1462 1465 1467 1466 1464 1464 1465 1466 1467 1468 1470 1472 1475 1478 1481 1484 1487 1490 1493 1497 1500 1503 1506 1509 1512 1514 1516 1519 1521 1524 1526 1528 1530
1460 1457 1456 1456 1457 1457 1458 1456 1458 1460 1463 1467 1468 1471 1467 1465 1464 1464 1464 1465 1466 1468 1471 1473 1476 1479 1482 1485 1488 1491 1494 1496 1499 1502 1504 1507 1509 1511 1514 1517 1519 1522 1524 1526
1459 1456 1455 1456 1455 1455 1457 1455 1457 1460 1463 1468 1470 1473 1469 1465 1464 1463 1462 1463 1464 1467 1470 1472 1474 1477 1480 1483 1486 1489 1491 1493 1496 1499 1501 1504 1506 1508 1510 1513 1515 1518 1520 1522
1458 1457 1456 1456 1455 1455 1456 1457 1459 1463 1465 1472 1472 1474 1472 1467 1464 1462 1461 1462 1463 1466 1468 1471 1473 1476 1478 1481 1484 1487 1489 1491 1493 1496 1497 1500 1502 1504 1506 1508 1511 1513 1516 1518
1459 1458 1457 1456 1456 1457 1458 1460 1467 1470 1472 1474 1473 1473 1473 1466 1464 1463 1461 1462 1463 1465 1467 1469 1472 1475 1477 1480 1482 1485 1487 1489 1491 1493 1495 1496 1498 1500 1502 1504 1507 1509 1511 1514
1461 1462 1459 1458 1457 1458 1460 1461 1466 1469 1473 1476 1474 1475 1473 1467 1464 1462 1462 1462 1463 1465 1467 1469 1471 1474 1476 1479 1481 1483 1485 1487 1489 1491 1492 1494 1495 1497 1498 1500 1503 1505 1508 1510
1461 1463 1460 1459 1458 1458 1460 1464 1464 1470 1474 1477 1477 1475 1470 1467 1466 1466 1465 1465 1466 1466 1467 1469 1471 1474 1476 1478 1480 1482 1483 1485 1487 1488 1489 1490 1492 1493 1495 1496 1499 1501 1503 1506
1461 1463 1463 1461 1459 1460 1461 1463 1468 1471 1473 1478 1478 1479 1482 1475 1473 1471 1470 1469 1469 1469 1469 1471 1472 1474 1476 1478 1479 1480 1482 1483 1484 1485 1486 1487 1488 1490 1491 1493 1495 1497 1499 1501
1461 1465 1467 1465 1467 1466 1464 1465 1470 1476 1474 1479 1482 1486 1481 1480 1477 1476 1474 1473 1472 1471 1472 1473 1474 1475 1477 1478 1479 1479 1480 1481 1482 1483 1484 1484 1486 1487 1488 1490 1491 1494 1496 1497
1463 1468 1472 1470 1467 1466 1465 1466 1468 1473 1480 1484 1487 1491 1481 1480 1478 1478 1477 1476 1475 1475 1475 1476 1476 1477 1477 1478 1478 1479 1479 1480 1480 1481 1481 1482 1483 1484 1485 1487 1488 1490 1492 1493
1463 1469 1476 1475 1475 1469 1467 1467 1470 1474 1483 1488 1490 1490 1482 1481 1480 1480 1479 1478 1478 1477 1477 1478 1478 1478 1478 1478 1478 1478 1478 1478 1478 1478 1479 1479 1480 1481 1482 1483 1485 1487 1488 1489
1463 1471 1475 1477 1474 1472 1470 1470 1471 1474 1484 1485 1485 1486 1484 1484 1483 1482 1482 1481 1480 1480 1480 1479 1479 1479 1479 1478 1478 1477 1477 1477 1476 1476 1476 1476 1477 1477 1478 1480 1481 1482 1484 1485
1464 1473 1474 1474 1472 1472 1472 1472 1472 1474 1478 1483 1483 1485 1485 1485 1485 1485 1484 1482 1481 1481 1481 1481 1480 1479 1479 1478 1477 1476 1475 1474 1473 1472 1472 1472 1473 1473 1474 1475 1476 1478 1479 1481
1468 1473 1475 1477 1475 1474 1475 1476 1475 1476 1478 1480 1482 1485 1485 1485 1485 1485 1485 1484 1483 1483 1482 1482 1480 1479 1478 1476 1475 1473 1472 1471 1470 1469 1468 1468 1468 1469 1469 1471 1472 1473 1475 1476
1473 1475 1480 1483 1479 1474 1482 1481 1480 1480 1482 1481 1483 1485 1485 1485 1486 1486 1486 1486 1485 1484 1483 1481 1479 1478 1476 1474 1472 1470 1468 1467 1465 1464 1463 1463 1463 1463 1464 1466 1467 1468 1470 1471
1474 1479 1486 1487 1481 1487 1485 1481 1480 1482 1484 1484 1484 1485 1485 1486 1486 1486 1486 1486 1485 1484 1482 1480 1478 1476 1474 1471 1469 1467 1465 1463 1461 1459 1459 1458 1458 1458 1459 1460 1461 1463 1464 1466
1473 1479 1486 1490 1490 1487 1483 1481 1482 1482 1484 1485 1485 1486 1486 1486 1486 1486 1486 1486 1485 1483 1481 1479 1477 1474 1471 1468 1465 1462 1460 1458 1456 1455 1454 1453 1453 1453 1453 1454 1456 1457 1459 1460
1477 1479 1486 1489 1486 1485 1483 1482 1481 1483 1484 1486 1485 1486 1486 1486 1489 1488 1486 1485 1483 1482 1479 1476 1474 1471 1468 1465 1461 1458 1456 1454 1452 1450 1449 1448 1448 1448 1448 1449 1450 1451 1453 1454
1481 1484 1488 1489 1489 1487 1483 1481 1481 1488 1485 1485 1485 1486 1486 1487 1488 1487 1484 1483 1481 1479 1476 1473 1470 1467 1464 1461 1458 1454 1452 1450 1448 1446 1444 1443 1442 1442 1443 1443 1444 1445 1446 1447
1483 1486 1488 1489 1489 1489 1482 1481 1483 1484 1483 1484 1485 1485 1485 1485 1484 1483 1481 1479 1477 1475 1472 1469 1466 1463 1461 1457 1454 1450 1448 1445 1443 1441 1439 1438 1437 1437 1437 1437 1438 1439 1440 1441
1483 1483 1484 1485 1485 1482 1480 1480 1481 1482 1482 1483 1483 1484 1483 1482 1481 1479 1478 1476 1473 1471 1468 1465 1462 1459 1456 1453 1450 1447 1444 1441 1438 1436 1434 1433 1432 1431 1431 1431 1432 1433 1434 1435
1481 1480 1482 1482 1480 1480 1480 1480 1480 1481 1482 1482 1482 1481 1481 1480 1478 1476 1474 1472 1470 1467 1464 1461 1458 1455 1452 1449 1446 1443 1439 1436 1433 1431 1429 1428 1426 1426 1425 1425 1426 1427 1428 1428
1476 1479 1480 1480 1479 1479 1478 1478 1479 1480 1480 1480 1479 1479 1478 1477 1475 1473 1471 1469 1466 1463 1461 1457 1454 1450 1447 1444 1441 1438 1435 1431 1428 1426 1424 1422 1421 1420 1420 1420 1420 1420 1421 1423
1473 1474 1477 1476 1473 1474 1474 1475 1477 1477 1478 1478 1477 1476 1475 1474 1472 1469 1467 1465 1462 1459 1456 1453 1449 1446 1442 1439 1435 1433 1430 1427 1423 1421 1419 1417 1416 1415 1414 1414 1414 1414 1415 1416